Location: Unspecified
(38.9820°N, 94.4650°W)
Time: 22:56:01
(UTC-05:00)

Okean 3 - Visible Passes

Search period start: 27 April 2015 00:00
Search period end: 07 May 2015 00:00
Orbit: 581 x 605 km, 82.5° (Epoch: 27 April)

Date Brightness Start Highest point End Pass type
(mag) Time Alt. Az. Time Alt. Az. Time Alt. Az.
27 Apr 5.2 20:48:24 11° ESE 20:50:20 14° E 20:52:41 10° NE visible
27 Apr 4.7 22:24:57 21° SW 22:27:20 40° WNW 22:31:22 10° N visible
28 Apr 4.7 20:56:31 11° SE 20:59:27 22° E 21:02:47 10° NE visible
28 Apr 5.5 22:33:06 10° SW 22:36:41 26° WNW 22:40:16 10° NNW visible
29 Apr 4.1 21:04:48 10° SSE 21:08:36 34° E 21:12:28 10° NNE visible
29 Apr 6.2 22:43:13 10° WSW 22:46:07 17° WNW 22:48:54 10° NNW visible
30 Apr 3.6 21:13:39 10° S 21:17:45 54° E 21:21:56 10° NNE visible
30 Apr 6.5 22:54:07 10° W 22:55:35 11° WNW 22:56:49 10° NW visible
01 May 3.4 21:22:44 10° S 21:26:58 88° E 21:31:15 10° N visible
02 May 4.1 21:32:03 10° SSW 21:36:12 57° W 21:40:25 10° N visible
03 May 5.1 21:41:35 10° SW 21:45:30 36° WNW 21:49:27 10° N visible
04 May 5.9 21:51:23 10° SW 21:54:52 24° WNW 21:58:18 10° NNW visible
05 May 6.5 22:01:35 10° WSW 22:04:16 16° WNW 22:06:48 10° NW visible
06 May 7.0 22:13:11 10° WNW 22:13:45 10° WNW 22:14:03 10° WNW visible
